Weather History for KDEN - December, 2011

Change the Weather History Date:

Tuesday, December 6, 2011

  Actual Average Record
Temperature  
Mean Temperature 13 °F 31 °F  
Max Temperature 30 °F 44 °F 73 °F (1939)
Min Temperature -5 °F 18 °F -17 °F (1972)
Degree Days  
Heating Degree Days 52 34  
Month to date heating degree days 303 202  
Since 1 July heating degree days 1555 1584  
Cooling Degree Days 0 0  
Month to date cooling degree days 0 0  
Year to date cooling degree days 964 769  
Moisture  
Dew Point 1 °F    
Average Humidity 54    
Maximum Humidity 79    
Minimum Humidity 28    
Precipitation  
Precipitation 0.00 in 0.01 in 1.66 in (1883)
Month to date precipitation 0.29 0.07  
Year to date precipitation 16.82 14.02  
Snow  
Snow 0.00 in - - ()
Month to date snowfall 9.2  
Since 1 July snowfall 22.2  
Snow Depth 2.00 in    
Sea Level Pressure  
Sea Level Pressure 30.24 in    
Wind  
Wind Speed 10 mph (SSW)    
Max Wind Speed 16 mph    
Max Gust Speed 20 mph    
Visibility 10 miles    
Events      
T = Trace of Precipitation, MM = Missing Value Source: NWS Daily Summary

Daily Weather History Graph

Daily Weather History Graph

Search for Another Location

Airport or City:

Trip Planner

Search our weather history database for the weather conditions in past years. The results will help you decide how hot, cold, wet, or windy it might be!

Date:

Astronomy

Dec. 06, 2011 Rise Set
Actual Time 7:05 AM MST 4:33 PM MST
Civil Twilight 6:35 AM MST 5:03 PM MST
Nautical Twilight 6:01 AM MST 5:37 PM MST
Astronomical Twilight 5:28 AM MST 6:10 PM MST
Moon 2:02 PM MST (12/6) 3:26 AM MST (12/6)
Length of Visible Light 10h 28m
Length of Day
9h 28m
Waxing Gibbous, 87% of the Moon is Illuminated
Dec 6
Waxing Gibbous
Dec 10
Full
Dec 17
Last Quarter
Dec 24
New
Dec 31
First Quarter

Hourly Weather History & Observations

Time (MST) Temp. Windchill Dew Point Humidity Pressure Visibility Wind Dir Wind Speed Gust Speed Precip Events Conditions
12:53 AM -0.9 °F -15.3 °F -7.1 °F 75% 30.40 in 10.0 mi SW 8.1 mph - N/A   Clear
1:53 AM -0.9 °F -15.3 °F -7.1 °F 75% 30.38 in 10.0 mi SW 8.1 mph - N/A   Clear
2:53 AM -2.0 °F -17.7 °F -8.0 °F 76% 30.38 in 10.0 mi SW 9.2 mph - N/A   Clear
3:53 AM 1.9 °F -14.7 °F -5.1 °F 72% 30.34 in 10.0 mi SW 11.5 mph - N/A   Clear
4:53 AM 1.9 °F -14.7 °F -7.1 °F 66% 30.33 in 10.0 mi SSW 11.5 mph - N/A   Clear
5:53 AM 3.0 °F -13.3 °F -7.1 °F 63% 30.32 in 10.0 mi SSW 11.5 mph - N/A   Clear
6:53 AM 6.1 °F -11.6 °F -7.1 °F 55% 30.30 in 10.0 mi SSW 15.0 mph - N/A   Clear
7:53 AM 9.0 °F -8.5 °F -6.0 °F 51% 30.28 in 10.0 mi SSW 16.1 mph - N/A   Partly Cloudy
8:53 AM 12.0 °F -3.4 °F -4.0 °F 49% 30.27 in 10.0 mi SSW 13.8 mph - N/A   Partly Cloudy
9:53 AM 15.1 °F -0.1 °F -2.0 °F 47% 30.26 in 10.0 mi SSW 15.0 mph - N/A   Partly Cloudy
10:53 AM 18.0 °F 7.7 °F 3.0 °F 52% 30.22 in 10.0 mi SSW 8.1 mph - N/A   Partly Cloudy
11:53 AM 23.0 °F 13.1 °F 5.0 °F 46% 30.18 in 10.0 mi SSW 9.2 mph - N/A   Clear
12:53 PM 26.1 °F 19.4 °F 6.1 °F 43% 30.14 in 10.0 mi SSW 5.8 mph - N/A   Partly Cloudy
1:53 PM 28.0 °F 21.7 °F 6.1 °F 39% 30.12 in 10.0 mi SSW 5.8 mph - N/A   Partly Cloudy
2:53 PM 30.0 °F 26.5 °F 1.9 °F 30% 30.12 in 10.0 mi NE 3.5 mph - N/A   Partly Cloudy
3:53 PM 25.0 °F 18.1 °F 3.0 °F 39% 30.14 in 10.0 mi East 5.8 mph - N/A   Partly Cloudy
4:53 PM 26.1 °F 21.9 °F 3.0 °F 37% 30.15 in 10.0 mi ESE 3.5 mph - N/A   Partly Cloudy
5:53 PM 25.0 °F 19.3 °F 1.9 °F 37% 30.18 in 10.0 mi SSE 4.6 mph - N/A   Partly Cloudy
6:53 PM 21.9 °F 13.4 °F 3.0 °F 44% 30.20 in 10.0 mi South 6.9 mph - N/A   Partly Cloudy
7:53 PM 19.9 °F 7.3 °F 8.1 °F 60% 30.20 in 10.0 mi South 12.7 mph - N/A   Mostly Cloudy
8:53 PM 19.9 °F 8.6 °F 10.9 °F 68% 30.20 in 10.0 mi South 10.4 mph - N/A   Partly Cloudy
9:53 PM 25.0 °F 14.2 °F 10.0 °F 53% 30.19 in 10.0 mi SSW 11.5 mph - N/A   Clear
10:53 PM 26.1 °F 16.2 °F 10.9 °F 53% 30.19 in 10.0 mi SSW 10.4 mph - N/A   Clear
11:53 PM 26.1 °F 16.2 °F 10.9 °F 53% 30.15 in 10.0 mi SW 10.4 mph - N/A   Clear